COSMOS 1375 DEB, 16380

Orbit data source: Space-Track

COSMOS 1375 DEB, 16380 is space debris in LEO originally from a launch on Sun, 06 Jun 1982 UTC launched from the Plesetsk Missile And Space Complex (PKMTR). Debris objects in space refer to the collection of defunct objects orbiting the Earth. Examples of debris include non-operational satellites, rocket bodies, and fragments generated from explosions, collisions, or faulty payload assembly.

Loading next visibility...
Identifier
16380, 1982-055U
Orbit
LEO
Country
Flag of CISCIS
Related business
Manufacturer
Unknown
Mission
Spacecraft
Bus & Motor
Unknown
Mass
Unknown
Launch date (UTC)
1982-06-06 (44 years ago)
Launch vehicle
Unknown
Launch site
Plesetsk Missile And Space Complex (PKMTR)
Object type
Payload
Rocket body
Debris
Shape & HBR
Unknown shape, 0.2 m
Radar Cross Section
Medium (>0.1 m² and <1 m²)

Expand to show TLE details & history
Last TLE update: 2 days ago

TLE from 2 days ago
0 COSMOS 1375 DEB
1 16380U 82055U   26171.03625617 -.00000070  00000-0  10606-4 0  9990
2 16380  65.8373   7.3967 0041733 117.2206  43.9275 13.64012940 24861
Epoch: 2026-06-20T00:52Z
TLE epoch observation values (Epoch: 2026-06-20T00:52:12.533Z)
Latitude
16.8475°
Longitude
-101.6796°
Altitude
1,000.32 km
Speed
7.364 km/s
True Right ascension
11h 58m 31s
True Declination
16° 45' 20"
Sunlit
Object was in daylight at epoch
Visualization orbit readout
Latitude
Unknown
Longitude
Unknown
Altitude
Unknown
Speed
Unknown
Apparent Right ascension
Unknown
Apparent Declination
Unknown
Sunlit
N/A
Visualization observer readout
Local Sidereal Time
23:09:05
Azimuth
Unknown
Elevation
Unknown
Doppler factor
Unknown
Orbital elements
Apogee altitude
1,050.542 km
Perigee altitude
988.795 km
Semi-major axis
7,397.805 km
Eccentricity
0.00417
Inclination
65.8373°
RAAN
7.3967°
Arg. of periapsis
117.2206°
True anomaly
44.26052°
Mean anomaly
43.9275°
Eccentric anomaly
44.09388°
Mean motion
3.41106 °/min
Orbital period
105.54 mins
BSTAR
0.000010606
Loading maneuver chart data...
Computing Atmospheric mass density...
Loading historical data...
Loading historical data...
Loading historical data...
Loading historical data...
Loading historical data...
Loading historical data...
Loading historical data...

Documentation

Showing up to 5 results
|